This is the latest recevied weather packets stored in our database for station/object W1RCY. If no packets are shown the sender has not sent any weather packets the latest 10 day(s).
| Time | Temp. | Humidity | Pressure | Rain* | Wind** | Luminosity | Snow |
|---|---|---|---|---|---|---|---|
| 1777554637 | 6.67° C | 99% | 1007.1 hPa | 0 mm | - | 102 W/m² | - |
| 1777554334 | 6.67° C | 99% | 1006.8 hPa | 0 mm | - | 89 W/m² | - |
| 1777554031 | 6.67° C | 99% | 1007 hPa | 0 mm | - | 79 W/m² | - |
| 1777553727 | 6.67° C | 99% | 1006.9 hPa | 0 mm | - | 93 W/m² | - |
| 1777553425 | 6.11° C | 99% | 1007 hPa | 0 mm | - | 66 W/m² | - |
| 1777553121 | 6.11° C | 99% | 1007 hPa | 0 mm | - | 55 W/m² | - |
| 1777552820 | 6.11° C | 99% | 1006.8 hPa | 0 mm | - | 59 W/m² | - |
| 1777552516 | 6.11° C | 99% | 1006.7 hPa | 0 mm | - | 72 W/m² | - |
| 1777552213 | 6.11° C | 99% | 1006.8 hPa | 0 mm | - | 82 W/m² | - |
| 1777551910 | 6.11° C | 99% | 1006.7 hPa | 1.27 mm | - | 75 W/m² | - |
| 1777551607 | 6.11° C | 99% | 1006.9 hPa | 3.05 mm | - | 70 W/m² | - |
| 1777551305 | 6.11° C | 99% | 1007.1 hPa | 0 mm | - | 63 W/m² | - |
| 1777551001 | 6.11° C | 99% | 1006.9 hPa | 0 mm | - | 61 W/m² | - |
| 1777550698 | 6.11° C | 99% | 1006.9 hPa | 0 mm | - | 51 W/m² | - |
| 1777550394 | 6.11° C | 99% | 1006.8 hPa | 1.78 mm | - | 60 W/m² | - |
| 1777550090 | 6.11° C | 99% | 1007.1 hPa | 1.78 mm | - | 64 W/m² | - |
| 1777549787 | 5.56° C | 99% | 1007.3 hPa | 0 mm | - | 55 W/m² | - |
| 1777549483 | 5.56° C | 99% | 1007 hPa | 0 mm | - | 48 W/m² | - |
| 1777549179 | 5.56° C | 99% | 1007.2 hPa | 0 mm | - | 48 W/m² | - |
| 1777548876 | 5.56° C | 99% | 1007 hPa | 0 mm | - | 49 W/m² | - |
| 1777548572 | 5.56° C | 99% | 1007.1 hPa | 0 mm | - | 49 W/m² | - |
| 1777548269 | 5.56° C | 99% | 1007.3 hPa | 0 mm | - | 42 W/m² | - |
| 1777547966 | 5.56° C | 99% | 1007.3 hPa | 0 mm | - | 36 W/m² | - |
| 1777547662 | 5.56° C | 99% | 1007.2 hPa | 0 mm | - | 35 W/m² | - |
| 1777547359 | 5.56° C | 99% | 1007.1 hPa | 0 mm | - | 31 W/m² | - |
* Rain latest hour (hover to see other rain measurements)
** Current wind speed in m/s (hover to see current wind gust speed)